| time (UTC) | temp F | wind direction | speed MPH | gust MPH | rain 1hr in | rain 24hr in | rain mn in | humidity % | barometer mb |
| 20260503230104 | 59 | 0 | 0.0 | 0.0 | 0.00 | 0.00 | 0.00 | 38 | 1011.1 |
| 20260503224550 | 60 | 0 | 0.0 | 3.0 | 0.00 | 0.00 | 0.00 | 33 | 1010.9 |
| 20260503223107 | 60 | 0 | 0.0 | 11.0 | 0.00 | 0.00 | 0.00 | 33 | 1010.8 |
| 20260503221553 | 61 | 0 | 0.0 | 9.0 | 0.00 | 0.00 | 0.00 | 34 | 1010.8 |
| 20260503220042 | 61 | 0 | 0.0 | 4.0 | 0.00 | 0.00 | 0.00 | 33 | 1010.7 |
| 20260503214555 | 61 | 0 | 0.0 | 8.0 | 0.00 | 0.00 | 0.00 | 34 | 1010.7 |
| 20260503213050 | 61 | 0 | 0.0 | 9.0 | 0.00 | 0.00 | 0.00 | 30 | 1010.7 |
| 20260503211550 | 61 | 0 | 0.0 | 1.0 | 0.00 | 0.00 | 0.00 | 32 | 1010.7 |
| 20260503210045 | 61 | 0 | 0.0 | 4.0 | 0.00 | 0.00 | 0.00 | 33 | 1010.8 |
| 20260503204550 | 61 | 223 | 0.0 | 12.0 | 0.00 | 0.00 | 0.00 | 30 | 1010.8 |
| 20260503203049 | 61 | 0 | 0.0 | 3.0 | 0.00 | 0.00 | 0.00 | 34 | 1010.9 |
| 20260503201550 | 60 | 0 | 0.0 | 4.0 | 0.00 | 0.00 | 0.00 | 32 | 1011.1 |
| 20260503200048 | 60 | 0 | 0.0 | 4.0 | 0.00 | 0.00 | 0.00 | 35 | 1011.1 |
| 20260503194551 | 60 | 0 | 1.0 | 4.0 | 0.00 | 0.00 | 0.00 | 33 | 1011.2 |
| 20260503193050 | 60 | 298 | 0.0 | 12.0 | 0.00 | 0.00 | 0.00 | 31 | 1011.2 |
| 20260503191540 | 59 | 0 | 0.0 | 4.0 | 0.00 | 0.00 | 0.00 | 34 | 1011.4 |
| 20260503190050 | 58 | 0 | 0.0 | 3.0 | 0.00 | 0.00 | 0.00 | 35 | 1011.5 |
| 20260503184548 | 58 | 0 | 1.0 | 7.0 | 0.00 | 0.00 | 0.00 | 32 | 1011.6 |
| 20260503183052 | 58 | 213 | 0.0 | 4.0 | 0.00 | 0.00 | 0.00 | 36 | 1011.9 |
| 20260503181604 | 58 | 0 | 0.0 | 5.0 | 0.00 | 0.00 | 0.00 | 38 | 1012.0 |
| 20260503180053 | 57 | 0 | 0.0 | 5.0 | 0.00 | 0.00 | 0.00 | 34 | 1011.8 |
| 20260503174553 | 56 | 0 | 0.0 | 5.0 | 0.00 | 0.00 | 0.00 | 39 | 1012.0 |
| 20260503173047 | 55 | 278 | 0.0 | 7.0 | 0.00 | 0.00 | 0.00 | 45 | 1012.2 |
| 20260503171550 | 55 | 0 | 0.0 | 3.0 | 0.00 | 0.00 | 0.00 | 44 | 1012.3 |
| 20260503081550 | 44 | 0 | 0.0 | 2.0 | 0.00 | 0.01 | 0.00 | 61 | 1011.1 |
| 20260503071550 | 44 | 0 | 0.0 | 0.0 | 0.00 | 0.01 | 0.00 | 63 | 1010.8 |
| 20260503054543 | 47 | 0 | 0.0 | 5.0 | 0.00 | 0.01 | 0.00 | 57 | 1011.0 |
| 20260503053051 | 47 | 0 | 0.0 | 2.0 | 0.00 | 0.01 | 0.00 | 58 | 1011.2 |
| 20260503051548 | 47 | 0 | 0.0 | 0.0 | 0.00 | 0.01 | 0.00 | 58 | 1011.4 |
| 20260503050050 | 47 | 0 | 0.0 | 2.0 | 0.00 | 0.01 | 0.00 | 60 | 1011.4 |
| 20260503044602 | 47 | 0 | 0.0 | 0.0 | 0.00 | 0.01 | 0.00 | 59 | 1011.5 |
| 20260503043057 | 47 | 0 | 0.0 | 2.0 | 0.00 | 0.01 | 0.00 | 61 | 1011.6 |
| 20260503041608 | 47 | 0 | 0.0 | 0.0 | 0.00 | 0.01 | 0.00 | 62 | 1011.7 |
| 20260503040053 | 47 | 0 | 0.0 | 0.0 | 0.00 | 0.01 | 0.00 | 57 | 1011.9 |
| 20260503034547 | 48 | 0 | 0.0 | 0.0 | 0.00 | 0.01 | 0.01 | 57 | 1011.8 |
| 20260503033059 | 48 | 0 | 0.0 | 0.0 | 0.00 | 0.01 | 0.01 | 57 | 1011.7 |
| 20260503031549 | 47 | 0 | 0.0 | 0.0 | 0.00 | 0.01 | 0.01 | 55 | 1011.8 |
| 20260503030041 | 47 | 0 | 0.0 | 0.0 | 0.00 | 0.01 | 0.01 | 60 | 1011.8 |
| 20260503024542 | 46 | 0 | 0.0 | 0.0 | 0.00 | 0.01 | 0.01 | 62 | 1011.8 |
| 20260503023053 | 47 | 0 | 0.0 | 0.0 | 0.00 | 0.01 | 0.01 | 62 | 1011.8 |
| 20260503021550 | 47 | 0 | 0.0 | 0.0 | 0.00 | 0.01 | 0.01 | 60 | 1011.8 |
| 20260503020051 | 48 | 0 | 0.0 | 2.0 | 0.00 | 0.01 | 0.01 | 61 | 1011.7 |
| 20260503014548 | 49 | 0 | 0.0 | 0.0 | 0.00 | 0.01 | 0.01 | 60 | 1011.8 |
| 20260503013051 | 50 | 0 | 0.0 | 0.0 | 0.00 | 0.01 | 0.01 | 59 | 1011.8 |
| 20260503011553 | 50 | 0 | 0.0 | 0.0 | 0.00 | 0.01 | 0.01 | 57 | 1011.8 |
| 20260503010048 | 50 | 0 | 0.0 | 0.0 | 0.00 | 0.01 | 0.01 | 58 | 1011.5 |
| 20260503004551 | 50 | 0 | 0.0 | 0.0 | 0.00 | 0.01 | 0.01 | 58 | 1011.4 |
| 20260503003055 | 52 | 0 | 0.0 | 0.0 | 0.00 | 0.01 | 0.01 | 53 | 1011.1 |
| 20260503001609 | 53 | 0 | 0.0 | 0.0 | 0.00 | 0.01 | 0.01 | 53 | 1010.9 |
| 20260503000110 | 54 | 0 | 0.0 | 0.0 | 0.00 | 0.01 | 0.01 | 45 | 1010.8 |
| 20260502234556 | 54 | 0 | 0.0 | 0.0 | 0.00 | 0.01 | 0.01 | 43 | 1010.7 |
| 20260502233050 | 55 | 5 | 0.0 | 0.0 | 0.00 | 0.01 | 0.01 | 44 | 1010.7 |
| 20260502231553 | 55 | 0 | 0.0 | 4.0 | 0.00 | 0.01 | 0.01 | 41 | 1010.7 |